Location: Bannatyne
(13.0833°N, 59.5333°W)
Time: 20:29:26
(UTC+00:00)

deb Explorer IX - Pass Details

Date: 25 January 2020
Orbit: 549 x 1099 km, 38.8° (Epoch: 19 February)

Event Time Altitude Azimuth Distance (km) Brightness Sun altitude
Rises 09:51:06 0° 294° (WNW) 3,609 - -8.7°
Exits shadow 09:53:58 - 286° (WNW) 2,629 ? -8.0°
Reaches altitude 10° 09:54:09 10° 285° (WNW) 2,571 ? -8.0°
Maximum altitude 09:59:26 31° 225° (SW) 1,388 ? -6.8°
Drops below altitude 10° 10:04:04 10° 163° (SSE) 2,229 ? -5.7°
Sets 10:06:33 0° 152° (SSE) 3,060 ? -5.1°
